{"data":{"norad_id":67067,"intl_designator":"2025-295J","name":"HULIANWANG DIGUI-127","alt_names":[],"object_type":"PAYLOAD","status":"ACTIVE","operator":null,"country":"PRC","launch_date":"2025-12-11","launch_site_code":"WSC","launch_vehicle":null,"mission":null,"orbit_class":"UNKNOWN","rcs_meters":null,"size_class":null,"mass_kg":null,"dimensions":null,"purposes":[],"wikipedia_slug":null,"has_3d_model":false,"image_url":null,"decayed_at":null,"tle_current":{"epoch":"2026-09-20T15:25:31.358784Z","epoch_age_seconds":96466,"freshness":"FRESH","line1":"1 67067U 25295J   26263.64272406 -.00000111  00000+0  28960-4 0  9991","line2":"2 67067  50.0021  42.7698 0000725  80.4481 279.6473 13.29324409 38209","mean_motion":13.29324409,"eccentricity":7.25e-5,"inclination_deg":50.0021,"raan_deg":42.7698,"arg_perigee_deg":80.4481,"mean_anomaly_deg":279.6473,"bstar":2.896e-5,"rev_number":3820,"period_min":108.32570215748,"perigee_km":1148.7668378982,"apogee_km":1149.858318087,"semimajor_km":7527.4495779926,"source":"CELESTRAK","updated_at":"2026-09-21T09:00:16.410796Z"}}}